Regional Weather Roundup
Issued by NWS Wakefield, VA

Home | Current Version | Previous Version | Text Only | Print | Product List | Glossary On
Versions: 1 2 3 4 5 6 7 8 9 10 11 12 13 14 15 16 17 18 19 20 21 22 23 24 25 26 27 28 29 30 31 32 33 34 35 36 37 38 39 40 41 42 43 44 45 46 47 48 49 50
000
ASUS41 KAKQ 211115
RWRAKQ

REGIONAL WEATHER ROUNDUP
NATIONAL WEATHER SERVICE WAKEFIELD VA
600 AM EST WED FEB 21 2018

Note: "fair" indicates few or no clouds below 12,000 feet with no
significant weather and/or obstructions to visibility. * = Denotes
station may not report precipitation (e.g., rain,snow,etc.),
thunder or fog.

VAZ042-051-052>054-056-211200-
NORTHERN VIRGINIA

CITY           SKY/WX    TMP DP  RH WIND       PRES   REMARKS
WASH NATIONAL  FAIR      59  58  96 S10       30.34R
DULLES         FAIR      59  58  96 S8        30.32S
FORT BELVOIR   FAIR      61  59  92 S3        30.34R
QUANTICO       FAIR      53  53 100 S10       30.36R FOG
FREDERICKSBRG* FAIR      62  62 100 SW13G20   30.36R
STAFFORD*      FAIR      63  63 100 S7        30.39R
WARRENTON      FAIR      62  56  81 SW6       30.33S
CULPEPER*      FAIR      61  57  88 S7        30.35R
MANASSAS*      FAIR      59  57  93 S6        30.34R
LEESBURG*      FAIR      59  59 100 SW12      30.32R
WINCHESTER     FAIR      57  52  82 SW7       30.31S
FRONT ROYAL*   FAIR      59  54  82 CALM      30.30S
LURAY*         FAIR      61  55  82 SW14      30.33S
$$

VAZ048-049-060>072-079>083-211200-
CENTRAL AND SOUTH CENTRAL VIRGINIA

CITY           SKY/WX    TMP DP  RH WIND       PRES   REMARKS
RICHMOND       CLOUDY    64  62  93 SW9       30.41R
CHESTERFIELD*  CLOUDY    64  62  93 SW7       30.41R
PETERSBURG*    NOT AVBL
HANOVER        CLOUDY    64  62  93 S9        30.40S
TAPPAHANNOCK*  CLOUDY    66  64  93 S7        30.40R
QUINTON*       CLOUDY    64  64 100 S6        30.40S
CHARLOTTSVILLE FAIR      60  57  89 S8        30.35S
GORDONSVILLE*  PTSUNNY   57  57 100 SW7       30.36R
ORANGE*        FAIR      57  55  94 CALM      30.36R
LOUISA*        CLOUDY    60  59  97 S5        30.42R
BUMPASS*       CLOUDY    60  58  95 SW7       30.37R
FARMVILLE*     CLOUDY   N/A N/A N/A S13       30.39R
CREWE*         CLOUDY    64  64 100 S8        30.41R
FORT PICKETT*  CLOUDY    63  63 100 SW12G20   30.42R
CHASE CITY*    CLOUDY    63  63 100 CALM      30.43R
CLARKSVILLE*   PTSUNNY   63  63 100 S6        30.43R
SOUTH HILL*    CLOUDY    62  62 100 S7        30.49S
LAWRENCEVILLE* CLOUDY    63  62  97 SW7       30.44R
EMPORIA*       CLOUDY    63  63 100 S6        30.46R
$$

VAZ088>098-211200-
SOUTHEAST VIRGINIA

CITY           SKY/WX    TMP DP  RH WIND       PRES   REMARKS
NORFOLK        CLOUDY    66  64  93 S12       30.43S
VIRGINIA BEACH CLOUDY    65  62  90 S9        30.43S
NORFOLK NAVAL  MOCLDY    66  63  90 SW9       30.44S
WEST POINT*    CLOUDY    64  61  91 S7        30.42S
SALUDA*        CLOUDY    64  64 100 SW7       30.40S
NEWPORT NEWS   CLOUDY    65  62  90 SW9       30.43R
LANGLEY AFB    MOCLDY    65  65 100 SW12      30.43R
FORT EUSTIS    CLOUDY    64  63  96 SW5       30.41R
WILLIAMSBURG*  MOCLDY    66  64  94 SW5       30.43S
HR EXEC AP*    CLOUDY    66  64  93 SW8G16    30.45R
FRANKLIN*      CLOUDY    64  63  99 SW8       30.45R
US460-WAKEFLD  CLOUDY    65  64  97 SW7       30.43R
$$

VAZ020-022-025-037-045-211200-
WEST CENTRAL AND SOUTHWEST VIRGINIA

CITY           SKY/WX    TMP DP  RH WIND       PRES   REMARKS
STAUNTON*      FAIR      48  47  97 CALM      30.37S
WAYNESBORO*    FAIR      54  54  99 CALM      30.37R
HOT SPRINGS VA CLOUDY    57  51  81 SW10G16   30.42R
LYNCHBURG      CLOUDY    53  53 100 CALM      30.41R FOG
DANVILLE       CLOUDY    61  61 100 S6        30.42S
SOUTH BOSTON*  FAIR      61  60  95 S3        30.42S
MARTINSVILLE   CLOUDY    55  55  99 CALM      30.44R FOG
ROANOKE        MOCLDY    51  50  96 CALM      30.40F
BLACKSBURG     CLOUDY    55  55  99 CALM      30.43S FOG
DUBLIN*        CLOUDY    51  51 100 CALM      30.41R FOG
MARION*        MOCLDY    53  50  89 CALM      30.42R
HILLSVILLE*    CLOUDY    58  57  96 S6        30.42R FOG
RICHLANDS*     FAIR      62  53  71 S5        30.36S
WISE*          FAIR      63  55  77 S9G20     30.35S
ABINGDON*      FAIR      55  53  93 CALM      30.35S
$$

MDZ021>025-VAZ099-100-211200-
SOUTHERN MARYLAND AND THE DELMARVA PENINSULA

CITY           SKY/WX    TMP DP  RH WIND       PRES   REMARKS
PATUXENT RIVER CLOUDY    65  63  93 SW9       30.37S
BAY BRIDGE APT FAIR      59  59 100 S10       30.33R
LEONARDTOWN    CLOUDY    63  61  94 SW12      30.38S
DOVER          MOCLDY    62  61  94 SW14      30.32S
GEORGETOWN     CLOUDY    66  62  87 SW17      30.36R
EASTON         CLOUDY    63  59  88 SW14G21   30.38S
CAMBRIDGE        N/A     61  61 100 S7        30.37S
SALISBURY      CLOUDY    65  63  93 SW13G24   30.39R
OCEAN CITY     FOG       54  54 100 S9        30.40R VSB 1/2
WALLOPS ISLAND FOG       54  52  93 S10       30.40F VSB 1/2
ACCOMACK*      CLOUDY    65  63  94 S9G18     30.40F
$$

NCZ012>017-030>032-211200-
NORTH CENTRAL AND EASTERN NORTH CAROLINA

CITY           SKY/WX    TMP DP  RH WIND       PRES   REMARKS
ROANOKE RAPIDS CLOUDY    64  64 100 SW8       30.44S
RALEIGH        CLOUDY    64  63  96 SW12      30.45S FOG
ELIZABETH CITY FOG       63  63 100 S7        30.46S VSB 3/4
AHOSKIE*       CLOUDY    63  63 100 S5        30.45S FOG
EDENTON*       FOG       64  64 100 S3        30.47R VSB 1/4
CURRITUCK*     CLOUDY    60  59  97 CALM      30.47R FOG
KILL DEVIL HLS CLOUDY   N/A N/A N/A CALM      30.46S FOG
MANTEO         FOG       57  57 100 SW3       30.48S VSB 1/4
CAPE HATTERAS  CLOUDY    61  61 100 CALM      30.49R FOG
TARBORO*       NOT AVBL
GOLDSBORO      FOG       63  63 100 S3        30.45R VSB 1/2
WASHINGTON     FOG       59  59  98 CALM      30.47R VSB<1/4
GREENVILLE     CLOUDY    64  64 100 S5        30.46R FOG
NEW BERN       FAIR      64  64 100 S8        30.47S
WILMINGTON     FOG       56  56 100 CALM      30.47R VSB 1/4
$$

VAZ048-211200-
ELSEWHERE

CITY           SKY/WX    TMP DP  RH WIND       PRES   REMARKS
HARRISBURG PA  FAIR      45  44  97 E6        30.28S FOG
BALTIMORE      FAIR      61  60  97 SW7       30.31R
ANNAPOLIS      FAIR      56  56 100 S6        30.32S FOG
ANDREWS AFB    PTCLDY    61  60  94 S16       30.32S
PHILADELPHIA   CLOUDY    54  54 100 CALM      30.32S FOG
GREENSBORO     CLOUDY    64  64 100 S8        30.42R
ROCKY MOUNT    CLOUDY    64  63  96 S6        30.46R FOG
$$

VAZ100-211200-
MARINE

STATION/POSITION TIME  TEMP    WIND        PRES    WAVE   SWELL
                       AIR SEA DIR/SP/G            HT/PER HT/PER
                 (UTC) (F)     (DEG/KT/KT) (MB)    (FT/S) (FT/S)
BRANDYWINE LGT   1042   58     200/ 16/ 17 1027.9S
CAPE MAY NJ      1042   52 43  170/  8/ 11 1027.4F
LEWES DE         1042   64 43  230/  8/ 12 1027.7F
15NM E FENWICK I 1050   47 41  200/ 14/ 16 1029.4F   3/ 5   2/11
OCEAN-CITY-INLET 1042   45 44  190/ 10/ 13 1029.5F
WACHAPREAGUE VA  1042   55 54  220/  8/ 11 1029.9S
THOMAS POINT MD  1100   48 39  200/ 15/ 15   N/A
GOOSES REEF MD   1100   48 40  190/  6/ 10 1028.6    1/ 2
COVE POINT MD    1042   62     230/ 15/ 20 1028.6F
SOLOMONS ISLAND  1042   61 42  220/ 12/ 15 1028.0S
BISHOPS HEAD MD  1042   51 47  190/ 10/ 11 1029.2R
PINEY POINT MD   1042          240/ 14/ 16   N/A
POTOMAC MD       1100   54 41   40/ 10/ 12 1028.2    1/ 2
CAMBRIDGE MD     1042   60 46              1028.9R
LEWISETTA VA     1042   64 48  230/ 12/ 15 1028.7F
RAPPAHANNOCK LGT 1042          180/ 19/ 21 1029.9F
STINGRAY PT      1100   56 44  250/ 12/ 16 1031.6    1
YORK RVR RNG VA  1042   57     230/ 13/ 15 1030.6R
YORKTOWN VA      1042   65 47  230/ 10/ 12 1029.8R
DOMINION TERM VA 1042   58     210/  9/ 11 1030.5S
KIPTOPEKE VA     1042      44  170/  6/  7   N/A
CAPE HENRY VA    1042   66     190/  9/ 12   N/A
S CRANEY ISL VA  1042   63     210/  7/ 10 1030.2S
CAPE HENRY BUOY  1100      44                N/A     3/12   2/12
1ST LANDING BUOY 1100   53 42  220/  8/  8 1030.5    1
CAPE CHARLES BUO 1051      44                N/A     2/11   2/11
64NM E OF VA BCH 1050   54 51  200/  8/ 10 1032.3R   3/12   3/12
DUCK PIER NC     1042   61 44  200/ 10/ 11 1031.2R
44100 DUCK FRF   1045      46                N/A     3/13   2/13
44056 DUCK FRF   1100      45                N/A     3/13   2/13
OREGON INLET NC  1042   59 56  190/  7/  8 1032.0R
HATTERAS NC      1042   64 59  170/  3/  3 1032.2R
DIAMOND SHLS NC  1050   72 71  180/ 12/ 14 1032.7R   4/11   3/11
CAPE LOOKOUT NC  1100          170/  4/  5 1032.4R
$$



USA.gov is the U.S. government's official web portal to all federal, state and local government web resources and services.